| time (UTC) | temp F | wind direction | speed MPH | gust MPH | rain 1hr in | rain 24hr in | rain mn in | humidity % | barometer mb |
| 20260904210815 | 66 | 268 | 2.0 | 3.0 | 0.00 | 0.02 | 0.01 | 42 | 1012.5 |
| 20260904205815 | 67 | 240 | 1.0 | 1.0 | 0.00 | 0.02 | 0.01 | 44 | 1012.5 |
| 20260904204817 | 66 | 3 | 0.0 | 3.0 | 0.00 | 0.02 | 0.01 | 42 | 1012.5 |
| 20260904203817 | 67 | 358 | 2.0 | 4.0 | 0.00 | 0.02 | 0.01 | 41 | 1012.5 |
| 20260904202857 | 67 | 2 | 2.0 | 3.0 | 0.00 | 0.02 | 0.01 | 47 | 1012.5 |
| 20260904201816 | 65 | 359 | 1.0 | 3.0 | 0.00 | 0.02 | 0.01 | 51 | 1012.6 |
| 20260904200815 | 65 | 335 | 1.0 | 3.0 | 0.00 | 0.02 | 0.01 | 54 | 1012.6 |
| 20260904195835 | 64 | 261 | 1.0 | 3.0 | 0.00 | 0.02 | 0.01 | 54 | 1012.7 |
| 20260904194818 | 64 | 328 | 0.0 | 3.0 | 0.00 | 0.02 | 0.01 | 54 | 1012.9 |
| 20260904193817 | 63 | 341 | 1.0 | 3.0 | 0.00 | 0.02 | 0.01 | 57 | 1013.0 |
| 20260904192817 | 63 | 359 | 1.0 | 4.0 | 0.00 | 0.02 | 0.01 | 57 | 1013.1 |
| 20260904191816 | 62 | 154 | 0.0 | 4.0 | 0.00 | 0.02 | 0.01 | 55 | 1013.2 |
| 20260904190836 | 62 | 352 | 1.0 | 4.0 | 0.00 | 0.02 | 0.01 | 60 | 1013.2 |
| 20260904185817 | 61 | 29 | 2.0 | 4.0 | 0.00 | 0.02 | 0.01 | 60 | 1013.3 |
| 20260904184815 | 60 | 333 | 1.0 | 3.0 | 0.00 | 0.02 | 0.01 | 62 | 1013.3 |
| 20260904183818 | 59 | 317 | 1.0 | 4.0 | 0.00 | 0.02 | 0.01 | 64 | 1013.4 |
| 20260904182817 | 59 | 52 | 3.0 | 4.0 | 0.00 | 0.02 | 0.01 | 62 | 1013.4 |
| 20260904181816 | 59 | 8 | 1.0 | 2.0 | 0.00 | 0.02 | 0.01 | 63 | 1013.3 |
| 20260904180816 | 58 | 155 | 1.0 | 2.0 | 0.00 | 0.02 | 0.01 | 66 | 1013.2 |
| 20260904175815 | 58 | 233 | 0.0 | 2.0 | 0.00 | 0.02 | 0.01 | 66 | 1013.2 |
| 20260904174815 | 58 | 0 | 1.0 | 2.0 | 0.00 | 0.02 | 0.01 | 68 | 1013.2 |
| 20260904173819 | 58 | 58 | 1.0 | 2.0 | 0.00 | 0.02 | 0.01 | 63 | 1013.3 |
| 20260904172837 | 58 | 88 | 1.0 | 4.0 | 0.00 | 0.02 | 0.01 | 66 | 1013.2 |
| 20260904171816 | 57 | 55 | 1.0 | 2.0 | 0.00 | 0.02 | 0.01 | 69 | 1013.2 |
| 20260904170816 | 57 | 65 | 1.0 | 2.0 | 0.00 | 0.02 | 0.01 | 70 | 1013.2 |
| 20260904165816 | 56 | 260 | 1.0 | 2.0 | 0.00 | 0.02 | 0.01 | 69 | 1013.1 |
| 20260904164816 | 56 | 277 | 1.0 | 3.0 | 0.00 | 0.02 | 0.01 | 72 | 1013.2 |
| 20260904163814 | 55 | 246 | 2.0 | 3.0 | 0.00 | 0.02 | 0.01 | 70 | 1013.1 |
| 20260904162817 | 55 | 273 | 2.0 | 4.0 | 0.00 | 0.02 | 0.01 | 73 | 1013.1 |
| 20260904161817 | 55 | 311 | 1.0 | 3.0 | 0.00 | 0.02 | 0.01 | 70 | 1013.1 |
| 20260904160816 | 56 | 354 | 1.0 | 2.0 | 0.00 | 0.02 | 0.01 | 69 | 1013.2 |
| 20260904155816 | 56 | 326 | 1.0 | 2.0 | 0.00 | 0.02 | 0.01 | 71 | 1013.1 |
| 20260904154816 | 55 | 359 | 1.0 | 2.0 | 0.00 | 0.02 | 0.01 | 72 | 1013.1 |
| 20260904153815 | 54 | 90 | 2.0 | 2.0 | 0.00 | 0.02 | 0.01 | 79 | 1013.1 |
| 20260904152818 | 54 | 254 | 0.0 | 2.0 | 0.00 | 0.02 | 0.01 | 82 | 1013.0 |
| 20260904151817 | 53 | 351 | 1.0 | 2.0 | 0.00 | 0.02 | 0.01 | 82 | 1013.0 |
| 20260904150817 | 53 | 254 | 1.0 | 2.0 | 0.00 | 0.02 | 0.01 | 84 | 1012.9 |
| 20260904145817 | 52 | 165 | 1.0 | 2.0 | 0.00 | 0.02 | 0.01 | 83 | 1012.9 |
| 20260904144816 | 52 | 175 | 1.0 | 2.0 | 0.00 | 0.02 | 0.01 | 84 | 1012.8 |
| 20260904143815 | 52 | 171 | 1.0 | 2.0 | 0.00 | 0.02 | 0.01 | 83 | 1012.7 |
| 20260904142815 | 51 | 166 | 1.0 | 2.0 | 0.00 | 0.02 | 0.01 | 84 | 1012.7 |
| 20260904141818 | 51 | 175 | 1.0 | 2.0 | 0.01 | 0.02 | 0.01 | 83 | 1012.5 |
| 20260904140817 | 51 | 149 | 1.0 | 3.0 | 0.01 | 0.02 | 0.01 | 84 | 1012.4 |
| 20260904135816 | 51 | 171 | 1.0 | 2.0 | 0.01 | 0.02 | 0.01 | 83 | 1012.3 |
| 20260904134817 | 51 | 168 | 1.0 | 4.0 | 0.01 | 0.02 | 0.01 | 83 | 1012.3 |
| 20260904133816 | 51 | 179 | 2.0 | 2.0 | 0.01 | 0.02 | 0.01 | 82 | 1012.1 |
| 20260904132815 | 51 | 151 | 2.0 | 3.0 | 0.01 | 0.01 | 0.01 | 82 | 1012.1 |
| 20260904131815 | 51 | 145 | 2.0 | 2.0 | 0.00 | 0.01 | 0.00 | 82 | 1012.0 |
| 20260904130837 | 51 | 147 | 2.0 | 2.0 | 0.00 | 0.01 | 0.00 | 81 | 1011.9 |
| 20260904125817 | 51 | 152 | 2.0 | 2.0 | 0.00 | 0.01 | 0.00 | 81 | 1011.8 |
| 20260904124817 | 51 | 150 | 1.0 | 2.0 | 0.00 | 0.01 | 0.00 | 81 | 1011.8 |
| 20260904123856 | 51 | 173 | 1.0 | 3.0 | 0.00 | 0.01 | 0.00 | 81 | 1011.8 |
| 20260904122816 | 51 | 160 | 2.0 | 3.0 | 0.00 | 0.01 | 0.00 | 81 | 1011.8 |
| 20260904121815 | 51 | 167 | 2.0 | 2.0 | 0.00 | 0.01 | 0.00 | 80 | 1011.7 |
| 20260904120818 | 52 | 156 | 1.0 | 2.0 | 0.00 | 0.01 | 0.00 | 79 | 1011.5 |
| 20260904115837 | 52 | 152 | 1.0 | 2.0 | 0.00 | 0.01 | 0.00 | 79 | 1011.5 |
| 20260904114857 | 52 | 155 | 1.0 | 2.0 | 0.00 | 0.01 | 0.00 | 79 | 1011.4 |
| 20260904113816 | 52 | 159 | 1.0 | 2.0 | 0.00 | 0.01 | 0.00 | 79 | 1011.4 |
| 20260904112816 | 52 | 108 | 1.0 | 3.0 | 0.00 | 0.01 | 0.00 | 78 | 1011.3 |
| 20260904111815 | 52 | 152 | 2.0 | 3.0 | 0.00 | 0.01 | 0.00 | 77 | 1011.3 |
| 20260904110835 | 53 | 158 | 2.0 | 3.0 | 0.00 | 0.01 | 0.00 | 75 | 1011.1 |
| 20260904105817 | 54 | 209 | 2.0 | 6.0 | 0.00 | 0.01 | 0.00 | 72 | 1011.1 |
| 20260904104817 | 54 | 239 | 2.0 | 9.0 | 0.00 | 0.01 | 0.00 | 72 | 1010.9 |
| 20260904103816 | 54 | 230 | 3.0 | 10.0 | 0.00 | 0.01 | 0.00 | 72 | 1010.8 |
| 20260904102816 | 54 | 259 | 6.0 | 11.0 | 0.00 | 0.01 | 0.00 | 71 | 1010.7 |
| 20260904101815 | 54 | 243 | 3.0 | 10.0 | 0.00 | 0.01 | 0.00 | 71 | 1010.6 |
| 20260904100815 | 54 | 262 | 5.0 | 12.0 | 0.00 | 0.01 | 0.00 | 71 | 1010.6 |
| 20260904095817 | 54 | 262 | 5.0 | 10.0 | 0.00 | 0.01 | 0.00 | 73 | 1010.4 |
| 20260904094817 | 53 | 261 | 4.0 | 8.0 | 0.00 | 0.01 | 0.00 | 74 | 1010.5 |
| 20260904093816 | 53 | 268 | 4.0 | 6.0 | 0.00 | 0.01 | 0.00 | 75 | 1010.4 |
| 20260904092816 | 53 | 239 | 4.0 | 8.0 | 0.00 | 0.01 | 0.00 | 74 | 1010.4 |
| 20260904091815 | 53 | 270 | 5.0 | 9.0 | 0.00 | 0.01 | 0.00 | 75 | 1010.3 |
| 20260904090815 | 54 | 259 | 6.0 | 8.0 | 0.00 | 0.01 | 0.00 | 74 | 1010.4 |
| 20260904085815 | 54 | 266 | 4.0 | 9.0 | 0.00 | 0.01 | 0.00 | 74 | 1010.4 |
| 20260904084817 | 54 | 241 | 2.0 | 12.0 | 0.00 | 0.01 | 0.00 | 75 | 1010.3 |
| 20260904083817 | 54 | 266 | 8.0 | 13.0 | 0.00 | 0.01 | 0.00 | 76 | 1010.2 |
| 20260904082816 | 54 | 277 | 5.0 | 15.0 | 0.00 | 0.01 | 0.00 | 76 | 1010.1 |
| 20260904081816 | 54 | 268 | 6.0 | 13.0 | 0.00 | 0.01 | 0.00 | 76 | 1010.0 |
| 20260904080815 | 54 | 246 | 7.0 | 13.0 | 0.00 | 0.01 | 0.00 | 74 | 1010.1 |
| 20260904075835 | 54 | 272 | 6.0 | 13.0 | 0.00 | 0.01 | 0.00 | 73 | 1010.1 |
| 20260904074818 | 54 | 268 | 4.0 | 11.0 | 0.00 | 0.01 | 0.00 | 73 | 1010.1 |
| 20260904073817 | 55 | 267 | 8.0 | 13.0 | 0.00 | 0.01 | 0.00 | 71 | 1010.1 |
| 20260904072817 | 55 | 274 | 6.0 | 11.0 | 0.00 | 0.01 | 0.00 | 72 | 1010.2 |
| 20260904071816 | 55 | 256 | 5.0 | 10.0 | 0.00 | 0.01 | 0.00 | 74 | 1010.1 |
| 20260904070816 | 55 | 268 | 5.0 | 15.0 | 0.00 | 0.01 | 0.00 | 74 | 1010.0 |
| 20260904065815 | 55 | 267 | 5.0 | 12.0 | 0.00 | 0.01 | 0.01 | 74 | 1010.0 |
| 20260904064835 | 55 | 260 | 5.0 | 11.0 | 0.00 | 0.01 | 0.01 | 74 | 1010.0 |
| 20260904063817 | 55 | 287 | 5.0 | 13.0 | 0.00 | 0.01 | 0.01 | 74 | 1010.0 |
| 20260904062817 | 55 | 273 | 4.0 | 12.0 | 0.00 | 0.01 | 0.01 | 75 | 1009.9 |
| 20260904061817 | 55 | 301 | 6.0 | 13.0 | 0.00 | 0.01 | 0.01 | 74 | 1009.9 |
| 20260904060816 | 55 | 274 | 4.0 | 15.0 | 0.00 | 0.01 | 0.01 | 74 | 1009.9 |
| 20260904055816 | 55 | 243 | 6.0 | 14.0 | 0.00 | 0.01 | 0.01 | 74 | 1009.8 |
| 20260904054815 | 56 | 280 | 3.0 | 11.0 | 0.00 | 0.01 | 0.01 | 75 | 1009.8 |
| 20260904053835 | 56 | 271 | 6.0 | 13.0 | 0.00 | 0.01 | 0.01 | 75 | 1009.8 |
| 20260904052817 | 56 | 270 | 4.0 | 11.0 | 0.00 | 0.01 | 0.01 | 75 | 1009.8 |
| 20260904051817 | 56 | 259 | 4.0 | 11.0 | 0.00 | 0.01 | 0.01 | 75 | 1009.8 |
| 20260904050816 | 56 | 287 | 6.0 | 11.0 | 0.00 | 0.01 | 0.01 | 75 | 1009.9 |
| 20260904045816 | 56 | 245 | 6.0 | 11.0 | 0.00 | 0.01 | 0.01 | 74 | 1009.9 |
| 20260904044835 | 56 | 267 | 6.0 | 12.0 | 0.00 | 0.01 | 0.01 | 72 | 1010.0 |
| 20260904043815 | 57 | 280 | 4.0 | 11.0 | 0.00 | 0.01 | 0.01 | 71 | 1009.9 |
| 20260904042818 | 57 | 286 | 5.0 | 11.0 | 0.00 | 0.01 | 0.01 | 71 | 1009.9 |
| 20260904041817 | 57 | 258 | 5.0 | 12.0 | 0.00 | 0.01 | 0.01 | 71 | 1009.9 |
| 20260904040817 | 57 | 271 | 5.0 | 12.0 | 0.00 | 0.01 | 0.01 | 70 | 1009.9 |
| 20260904035816 | 57 | 279 | 6.0 | 12.0 | 0.00 | 0.01 | 0.01 | 69 | 1010.0 |
| 20260904034815 | 58 | 254 | 6.0 | 8.0 | 0.00 | 0.01 | 0.01 | 67 | 1010.0 |
| 20260904033815 | 58 | 302 | 3.0 | 10.0 | 0.00 | 0.01 | 0.01 | 66 | 1009.9 |
| 20260904032815 | 58 | 270 | 5.0 | 13.0 | 0.00 | 0.01 | 0.01 | 65 | 1009.7 |
| 20260904031817 | 58 | 251 | 5.0 | 14.0 | 0.00 | 0.01 | 0.01 | 65 | 1009.6 |
| 20260904030817 | 58 | 269 | 4.0 | 15.0 | 0.00 | 0.01 | 0.01 | 65 | 1009.5 |
| 20260904025817 | 58 | 250 | 5.0 | 13.0 | 0.00 | 0.01 | 0.01 | 65 | 1009.4 |
| 20260904024816 | 58 | 261 | 5.0 | 12.0 | 0.00 | 0.01 | 0.01 | 66 | 1009.4 |
| 20260904023815 | 58 | 282 | 7.0 | 15.0 | 0.00 | 0.01 | 0.01 | 67 | 1009.3 |
| 20260904022815 | 59 | 248 | 6.0 | 13.0 | 0.00 | 0.01 | 0.01 | 66 | 1009.2 |
| 20260904021818 | 59 | 258 | 8.0 | 13.0 | 0.00 | 0.01 | 0.01 | 66 | 1009.2 |
| 20260904020817 | 59 | 272 | 8.0 | 15.0 | 0.00 | 0.01 | 0.01 | 66 | 1009.2 |
| 20260904015817 | 59 | 261 | 8.0 | 16.0 | 0.00 | 0.03 | 0.01 | 64 | 1009.2 |
| 20260904014816 | 59 | 257 | 5.0 | 16.0 | 0.00 | 0.06 | 0.01 | 64 | 1009.1 |
| 20260904013816 | 59 | 257 | 8.0 | 15.0 | 0.00 | 0.08 | 0.01 | 64 | 1009.1 |
| 20260904012816 | 59 | 278 | 9.0 | 16.0 | 0.00 | 0.08 | 0.01 | 62 | 1009.1 |
| 20260904011814 | 59 | 281 | 7.0 | 16.0 | 0.00 | 0.08 | 0.01 | 62 | 1009.1 |
| 20260904010817 | 60 | 283 | 5.0 | 13.0 | 0.00 | 0.08 | 0.01 | 60 | 1009.1 |
| 20260904005837 | 60 | 273 | 7.0 | 14.0 | 0.00 | 0.09 | 0.01 | 59 | 1009.0 |
| 20260904004816 | 61 | 277 | 4.0 | 17.0 | 0.00 | 0.09 | 0.01 | 60 | 1009.0 |
| 20260904003836 | 62 | 281 | 7.0 | 16.0 | 0.00 | 0.09 | 0.01 | 59 | 1008.9 |
| 20260904002815 | 61 | 253 | 8.0 | 14.0 | 0.01 | 0.10 | 0.01 | 60 | 1008.8 |
| 20260904001835 | 60 | 277 | 7.0 | 16.0 | 0.01 | 0.10 | 0.01 | 62 | 1008.8 |
| 20260904000817 | 60 | 290 | 6.0 | 15.0 | 0.01 | 0.12 | 0.01 | 62 | 1008.9 |
| 20260903235817 | 60 | 268 | 7.0 | 24.0 | 0.01 | 0.12 | 0.01 | 63 | 1009.0 |
| 20260903234817 | 59 | 253 | 6.0 | 16.0 | 0.01 | 0.13 | 0.01 | 65 | 1009.1 |
| 20260903233816 | 58 | 288 | 8.0 | 18.0 | 0.01 | 0.13 | 0.01 | 67 | 1009.2 |
| 20260903232816 | 59 | 263 | 8.0 | 19.0 | 0.00 | 0.12 | 0.01 | 61 | 1009.2 |
| 20260903231815 | 60 | 282 | 10.0 | 26.0 | 0.00 | 0.12 | 0.00 | 59 | 1009.3 |
| 20260903230835 | 59 | 258 | 11.0 | 23.0 | 0.00 | 0.12 | 0.00 | 60 | 1009.3 |
| 20260903225818 | 60 | 275 | 12.0 | 26.0 | 0.00 | 0.12 | 0.00 | 60 | 1009.5 |
| 20260903224837 | 60 | 261 | 13.0 | 21.0 | 0.00 | 0.12 | 0.00 | 59 | 1009.5 |
| 20260903223816 | 60 | 289 | 9.0 | 17.0 | 0.00 | 0.12 | 0.00 | 58 | 1009.5 |
| 20260903222816 | 59 | 295 | 8.0 | 25.0 | 0.00 | 0.12 | 0.00 | 59 | 1009.5 |
| 20260903221815 | 59 | 272 | 12.0 | 25.0 | 0.00 | 0.12 | 0.00 | 60 | 1009.4 |
| 20260903220815 | 58 | 269 | 11.0 | 27.0 | 0.00 | 0.12 | 0.00 | 61 | 1009.5 |
| 20260903215814 | 58 | 259 | 10.0 | 31.0 | 0.00 | 0.13 | 0.00 | 62 | 1009.5 |
| 20260903214817 | 59 | 277 | 8.0 | 30.0 | 0.00 | 0.13 | 0.00 | 58 | 1009.4 |
| 20260903213817 | 61 | 283 | 11.0 | 29.0 | 0.00 | 0.13 | 0.00 | 56 | 1009.4 |
| 20260903212816 | 63 | 300 | 12.0 | 27.0 | 0.00 | 0.13 | 0.00 | 54 | 1009.2 |
| 20260903211816 | 63 | 272 | 7.0 | 16.0 | 0.00 | 0.13 | 0.00 | 54 | 1009.2 |